星链-5106 (STARLINK-5106 )

导读

STARLINK-5106是美国SpaceX公司星链(Starlink)星座中的一颗卫星,于2022年12月28日发射入轨,属于星链项目的扩容卫星。星链星座旨在构建全球卫星互联网,为全球偏远、无网络覆盖区域提供高速宽带服务,该卫星也是SpaceX推进低轨卫星通信网络部署的一环。

Basic Information
目录编号:
54823
目录名称:
STARLINK-5106
国际标识:
2022-177D
轨道中心:
EARTH
卫星名称:
星链-5106
卫星全名:
星链-5106 (STARLINK-5106 )
卫星状态:
在轨 (已飞行1353 天)
发射日期:
2022-12-28 UTC
国别 :
美国 (US)
星等 :
--
This satellite is enrolled in the Space Conjunction Data Service (SCDS) and the current flight risk assessment level is: No High Risk
Orbit Information
数据来源 国际轨道数据 AOE轨道数据
星历时间 2026-09-11T12:18:55+0800
15小时前
查看轨道信息
2026-09-10T23:00:00+0800
1天前
查看轨道信息
半长轴 6861.193km 6861.204km
偏心率 0.0001239 0.0000941
轨道倾角 43.000° 42.999°
近地点辐角 228.144° 243.267°
升交点赤经 168.343° 171.480°
平近点角 131.931° 302.169°
近地点 482.205km 482.421km
远地点 483.907km 483.713km
周期 94.267分钟 94.267分钟
每日圈数 15.275778 15.275742
Detailed Information
固有亮度:
5
最大亮度:
2.5
卫星平台:
Starlink v1.5
覆盖范围:
全球
运营商:
太空探索技术公司
运营商所在国:
美国
制造商(研发单位):
太空探索技术公司
制造商所在国:
美国
使用方式:
暂无
Satellite Introduction
星链(Starlink)计划是由太空探索技术公司(SpaceX)提出的一个巨型低轨卫星互联网星座项目,计划在2019年至2024年间在太空搭建由约1.2万颗卫星组成的“星链”网络,其中1584颗将部署在地球上空550千米处的近地轨道,并从2020年开始工作。该卫星仍在工作。
2D Orbit Map
3D Orbit Map
Orbit Altitude Analysis Chart
Orbit Inclination Analysis Chart
Orbit Comprehensive Analysis Chart
View Comprehensive Chart
Conjunction Data List
Event ID Objects TCA Miss Dist (km) Collision Risk Probability Collision Risk Index (CRI) Action
CDM_260913-081005-482306-686521
2026-09-13T
08:10:52+0000
0.452 km
远距离
2.059378E-4 高风险 0.81
CDM_260912-070505-482306-648921
2026-09-12T
07:05:38+0000
0.472 km
远距离
1.850561E-4 高风险 0.8
CDM_260914-043705-482306-399721
2026-09-14T
04:37:18+0000
0.554 km
远距离
1.240201E-4 高风险 0.77
CDM_260913-195705-482306-686521
2026-09-13T
19:57:00+0000
0.732 km
远距离
5.793338E-5 中风险 0.7
CDM_260912-145505-482306-656021
2026-09-12T
14:55:49+0000
0.769 km
远距离
4.928703E-5 中风险 0.69
CDM_260912-202505-482306-648921
2026-09-12T
20:25:55+0000
1.207 km
极远距离
1.065721E-5 中风险 0.56
CDM_260913-204705-482306-364121
2026-09-13T
20:47:41+0000
1.355 km
极远距离
6.925459E-6 低风险 0.52
CDM_260913-041605-482306-656021
2026-09-13T
04:16:06+0000
1.464 km
极远距离
5.570629E-6 低风险 0.5
CDM_260913-055005-482306-656021
2026-09-13T
05:50:16+0000
1.726 km
极远距离
3.339851E-6 低风险 0.45
CDM_260913-191305-482306-364121
2026-09-13T
19:13:32+0000
1.706 km
极远距离
3.332391E-6 低风险 0.45
Miss Distance Evolution Trend with All Objects
Collision Probability Evolution Trend with All Objects